Lapse_Rate
5.9 5.9 6.0 6.1 6.1 6.2 6.3 6.5 6.6 6.6 6.5 6.5 6.5 6.4 6.4 6.5 6.5 6.5 6.5 6.6 6.6 6.7 6.7 6.8 6.8 6.8 6.8 6.7 6.7 6.7 6.8 6.9 7.0 6.9 6.9 6.9 7.0 6.9 6.9 6.8 7.0 7.1 7.1
5.7 5.8 5.9 6.0 6.0 6.1 6.1 6.3 6.4 6.5 6.5 6.4 6.5 6.6 6.5 6.5 6.5 6.6 6.5 6.5 6.5 6.5 6.6 6.6 6.7 6.7 6.7 6.7 6.7 6.7 6.7 6.8 6.8 6.8 6.8 6.7 6.8 6.9 6.8 6.9 6.8 6.8 6.8
5.5 5.5 5.6 5.7 5.8 5.8 5.8 6.1 6.2 6.2 6.3 6.2 6.3 6.4 6.4 6.5 6.5 6.6 6.6 6.6 6.6 6.6 6.6 6.5 6.5 6.6 6.6 6.6 6.6 6.6 6.6 6.6 6.6 6.6 6.5 6.7 6.7 6.7 6.7 6.7 6.8 6.8 6.8
5.3 5.2 5.3 5.4 5.4 5.4 5.5 5.6 5.8 5.9 6.0 6.1 6.3 6.4 6.4 6.3 6.3 6.4 6.5 6.6 6.6 6.5 6.5 6.6 6.5 6.5 6.6 6.6 6.5 6.5 6.5 6.5 6.6 6.5 6.5 6.5 6.5 6.5 6.4 6.5 6.5 6.6 6.7
5.0 5.0 5.2 5.2 5.3 5.2 5.1 5.2 5.4 5.5 5.7 5.8 5.9 5.9 6.0 6.3 6.3 6.4 6.4 6.4 6.4 6.5 6.5 6.5 6.5 6.5 6.5 6.5 6.5 6.4 6.5 6.4 6.4 6.5 6.5 6.4 6.4 6.3 6.3 6.3 6.2 6.3 6.4
5.0 5.0 5.0 5.2 5.3 5.2 5.2 5.1 5.1 5.3 5.3 5.3 5.5 5.7 5.8 5.9 5.9 6.1 6.2 6.2 6.3 6.3 6.4 6.4 6.4 6.5 6.4 6.4 6.4 6.4 6.5 6.4 6.4 6.3 6.3 6.3 6.4 6.2 6.1 6.1 6.1 6.1 6.1
5.1 4.9 4.9 5.1 5.1 5.2 4.8 5.0 5.2 5.4 5.2 5.1 5.3 5.5 5.8 5.9 5.6 5.7 5.7 5.8 6.1 6.2 6.1 6.1 6.2 6.4 6.5 6.5 6.5 6.4 6.4 6.4 6.4 6.3 6.3 6.3 6.3 6.3 6.1 6.1 5.9 5.9 6.0
5.3 5.1 5.0 4.9 5.0 5.2 5.5 5.2 5.1 5.0 4.7 5.3 4.8 5.1 5.3 5.6 5.3 5.5 5.5 5.6 5.6 5.8 6.1 6.2 6.0 6.1 6.2 6.3 6.4 6.4 6.4 6.4 6.4 6.4 6.3 6.3 6.2 6.2 6.1 6.1 6.1 5.9 5.9
5.3 5.3 5.2 5.2 5.1 5.3 5.0 5.2 5.3 4.4 4.7 4.7 4.9 5.2 5.4 5.4 5.3 5.3 5.3 5.3 5.3 5.2 5.5 6.0 6.2 6.2 6.1 6.1 6.2 6.3 6.3 6.3 6.3 6.3 6.3 6.2 6.1 6.1 6.1 6.1 6.1 6.0 6.0
5.1 5.1 5.3 5.1 4.8 5.2 5.3 5.3 5.0 5.1 4.7 4.7 5.2 5.2 5.2 5.0 5.0 5.5 5.2 5.0 5.2 5.1 5.1 5.4 5.7 5.7 6.0 6.2 6.1 6.2 6.2 6.2 6.3 6.3 6.2 6.2 6.2 6.1 6.0 6.0 6.0 5.9 6.0
5.9 5.4 5.9 5.8 5.7 5.7 5.4 5.3 5.2 5.0 4.6 5.0 5.2 5.0 5.1 5.4 5.1 5.3 5.5 5.2 5.2 5.0 5.1 5.4 5.4 5.5 5.6 5.7 6.1 6.1 6.1 6.1 6.1 6.2 6.2 6.2 6.2 6.2 6.1 6.0 6.0 5.9 5.9
6.5 6.5 6.4 6.4 6.2 6.1 5.9 4.9 4.9 5.4 4.8 5.0 4.8 4.9 5.0 5.3 5.4 5.2 5.2 5.4 5.8 5.2 5.2 5.5 5.4 5.4 5.5 5.7 5.7 6.0 6.3 6.3 6.1 6.1 6.2 6.2 6.1 6.2 6.1 6.0 6.0 6.0 5.9
6.7 6.8 6.7 6.6 6.5 6.3 6.1 5.8 5.4 5.6 5.1 5.5 5.0 5.0 4.8 5.0 5.2 5.1 5.3 5.1 5.4 5.3 5.4 5.5 5.4 5.4 5.5 5.4 5.7 5.8 5.9 6.1 6.1 6.0 5.9 5.9 6.0 6.0 5.9 5.8 5.8 6.0 5.9
7.2 7.0 6.8 6.7 6.5 6.4 6.3 6.1 6.0 5.8 5.6 5.3 5.2 5.1 5.4 4.8 5.1 5.0 5.1 4.8 5.2 5.2 5.5 5.6 5.3 5.3 5.2 5.1 5.0 5.2 5.3 5.5 5.7 5.7 5.6 5.6 5.7 5.7 5.6 5.5 5.8 5.9 6.1
7.2 7.2 7.0 6.9 6.8 6.7 6.6 6.4 6.2 6.1 5.9 5.7 5.2 5.6 5.2 4.9 4.5 5.0 4.9 5.1 4.9 4.9 5.3 5.5 5.4 5.0 4.9 4.9 4.9 5.0 5.0 5.0 5.2 5.4 5.5 5.4 5.4 5.5 5.5 5.5 5.7 5.8 6.1
7.0 6.9 6.9 6.8 6.7 6.6 6.4 6.2 6.1 6.0 6.0 5.9 5.8 5.5 5.2 5.2 4.9 4.8 5.0 5.1 4.9 4.5 4.7 5.6 5.1 5.0 4.9 5.0 4.9 4.9 4.9 4.7 4.8 4.9 5.1 5.1 5.2 5.4 5.3 5.3 5.6 5.8 5.9
7.0 7.1 7.1 6.9 6.6 6.5 6.4 6.2 6.1 5.9 5.8 5.8 5.8 5.5 5.3 4.7 4.9 4.9 4.8 4.8 5.0 4.8 4.5 4.9 4.9 4.8 4.9 4.8 4.7 4.7 4.6 4.6 4.5 4.5 4.6 4.7 4.9 4.9 5.2 5.2 5.4 5.6 5.8
7.2 7.2 7.2 7.0 6.9 6.7 6.6 6.4 6.2 6.0 5.8 5.8 5.7 5.5 5.3 5.0 4.3 4.8 4.8 4.8 4.8 4.8 4.8 5.0 4.8 4.5 4.4 4.5 4.6 4.6 4.4 4.2 4.3 4.2 4.2 4.4 4.6 4.7 5.0 5.2 5.4 5.6 5.6
7.4 7.4 7.4 7.2 7.1 7.0 6.8 6.5 6.3 5.9 5.7 5.7 5.6 5.4 5.2 4.8 4.7 4.9 4.9 4.7 4.7 4.5 4.5 4.4 4.9 4.4 3.9 4.0 3.6 3.9 4.2 3.9 4.0 4.0 4.2 4.3 4.5 4.6 4.9 4.9 5.0 5.4 5.7
7.5 7.5 7.5 7.4 7.2 6.9 6.8 6.6 6.2 5.7 5.6 5.5 5.4 5.3 5.2 5.0 4.9 4.8 4.9 4.8 4.6 4.4 4.4 4.3 4.2 4.3 4.1 3.9 3.9 4.1 4.1 4.0 3.8 3.6 4.2 4.3 4.3 4.3 4.5 4.7 4.9 5.2 5.5
7.4 7.4 7.2 7.1 6.9 6.6 6.3 5.8 5.8 5.6 5.4 5.3 5.3 5.2 5.2 5.0 4.9 4.9 4.9 4.8 4.6 4.5 4.2 4.2 4.1 4.0 3.9 4.1 4.2 4.1 4.0 4.1 4.1 3.9 4.1 4.2 4.0 4.2 4.3 4.5 4.7 4.9 5.5
6.9 6.8 6.7 6.7 6.4 5.7 5.5 4.9 4.5 4.7 4.8 5.1 5.0 5.0 5.2 5.1 5.0 5.0 4.9 4.8 4.7 4.5 4.6 4.5 4.3 4.2 4.2 4.4 4.2 4.2 4.0 4.2 3.7 3.8 3.6 3.5 3.8 4.0 4.0 4.4 4.8 5.2 5.6
6.0 6.3 6.1 6.0 5.9 5.3 4.2 4.5 4.4 4.3 4.6 4.6 4.7 4.9 5.2 5.2 5.1 5.1 5.0 4.8 4.7 4.7 4.7 4.2 4.2 4.1 4.3 4.4 4.3 4.1 4.0 3.9 3.7 3.7 3.7 3.9 3.6 4.0 4.2 4.6 5.3 5.9 6.1
5.4 5.4 5.0 4.8 4.5 4.5 4.2 4.5 4.2 4.2 4.4 4.3 4.6 4.8 5.0 5.1 5.2 5.2 5.1 5.0 4.9 5.0 5.1 4.3 4.2 4.0 4.3 4.3 4.2 4.2 4.1 3.9 3.8 3.8 3.8 3.7 3.8 4.0 4.1 4.7 5.5 6.0 6.4
4.7 4.6 4.7 4.6 4.4 4.3 4.5 4.2 4.0 4.2 4.5 4.4 4.6 4.9 4.9 5.1 5.4 5.3 5.1 5.2 5.3 5.3 4.7 4.4 4.4 4.3 4.4 4.2 4.1 4.5 4.3 4.2 4.0 3.7 3.5 3.4 3.8 3.8 3.6 4.7 5.7 6.1 6.9
4.7 4.6 4.3 4.9 4.5 4.5 4.1 4.0 3.9 4.0 4.2 4.7 4.9 5.0 4.9 4.9 5.1 5.2 5.2 5.1 5.0 5.2 4.6 4.1 4.1 4.0 3.8 4.1 4.2 4.3 4.3 4.1 3.8 3.7 3.8 3.6 3.5 3.3 3.3 4.5 5.3 5.9 6.3
Wind_Speed
10 12 11 10 10 11 12 12 13 11 11 12 11 13 12 11 12 10 11 13 10 11 9 9 11 11 13 13 10 14 14 14 16 19 17 15 18 18 18 18 18 17 17
13 12 11 10 9 9 9 15 11 10 9 11 11 11 10 11 12 9 8 12 7 11 11 11 11 11 13 11 11 9 13 14 16 16 16 14 14 16 18 18 16 16 16
15 14 11 9 10 9 9 15 11 8 8 8 7 11 10 9 12 8 6 7 8 7 6 8 7 8 9 9 9 9 10 11 13 11 13 15 17 18 18 18 16 14 15
16 14 10 10 13 10 9 9 6 3 4 3 3 5 9 6 13 6 5 6 7 6 8 10 8 7 8 5 8 7 8 8 9 11 10 10 11 13 15 15 13 13 14
15 13 10 10 15 11 7 6 2 2 2 3 3 2 3 6 11 7 4 4 6 6 5 9 8 6 6 7 8 6 7 6 7 7 9 10 10 11 10 11 10 11 11
15 12 10 12 13 8 4 3 3 3 2 3 4 3 3 2 6 7 9 3 3 4 3 3 4 4 4 3 4 4 2 5 5 6 7 8 8 8 8 6 6 9 10
16 14 10 11 12 7 6 6 3 4 2 3 3 2 3 3 2 1 4 8 7 6 3 1 0 1 2 4 3 2 3 3 3 6 6 6 5 5 4 6 4 8 8
16 14 13 10 12 6 7 7 5 3 2 4 3 2 1 3 2 3 2 3 4 10 8 6 5 3 2 1 1 2 3 3 2 2 4 4 6 7 9 6 6 8 8
17 16 16 13 11 9 7 8 7 6 3 3 3 4 2 4 1 2 2 2 2 3 8 10 9 7 6 5 4 3 3 3 4 3 3 1 2 5 6 6 8 9 7
15 16 16 15 14 11 6 8 9 6 5 5 1 1 2 4 3 1 2 3 3 4 6 8 10 11 10 9 8 7 6 5 6 6 2 1 2 1 1 2 2 7 6
11 14 15 14 10 11 10 8 6 6 5 4 4 3 1 1 2 2 2 2 2 4 6 9 13 12 13 13 12 12 11 8 7 7 7 4 3 4 4 5 3 4 2
3 10 11 12 12 12 9 8 11 8 6 5 5 4 4 3 3 3 1 2 3 2 3 8 10 14 17 17 17 16 14 13 10 8 9 8 6 3 5 4 6 1 2
3 5 8 7 6 10 13 13 7 8 8 7 8 6 3 3 3 3 3 2 3 2 2 3 12 16 18 20 20 20 18 17 15 11 10 11 9 8 6 4 5 5 3
4 6 8 9 10 12 11 11 6 6 6 6 7 6 5 4 4 4 4 4 1 1 1 5 3 13 19 21 24 22 20 19 19 17 13 12 10 5 8 8 6 8 4
3 6 8 6 9 10 11 11 5 8 7 7 8 7 4 5 4 4 4 3 4 3 3 3 3 7 12 16 22 20 21 22 21 20 18 16 14 9 6 10 10 11 10
5 5 6 6 6 7 7 7 6 6 7 5 4 7 6 3 5 4 4 3 3 4 4 4 4 4 4 8 14 19 19 20 22 20 20 19 17 14 13 9 13 13 15
6 6 7 7 7 7 6 6 6 7 9 8 6 9 9 7 5 4 4 3 4 3 4 3 3 2 4 5 6 12 15 16 18 20 21 20 19 19 17 17 14 17 19
4 6 7 8 10 11 10 10 9 7 9 9 9 6 9 6 8 7 6 7 6 5 5 7 4 3 5 4 4 5 10 13 15 18 19 19 18 18 18 19 18 15 17
6 5 6 7 9 11 11 11 10 9 9 9 9 10 8 9 8 5 6 7 7 6 7 6 7 3 3 2 2 3 4 8 13 16 16 16 17 19 20 20 21 21 18
8 7 5 6 9 10 10 10 9 8 8 8 8 9 9 9 10 9 7 9 7 6 4 5 5 3 3 2 2 3 4 3 3 8 14 17 16 19 20 20 21 21 22
7 8 5 5 5 5 6 8 9 8 8 8 8 9 9 10 12 10 7 8 8 7 6 7 7 3 3 3 4 3 4 2 4 8 2 7 14 16 18 20 21 23 23
8 9 6 6 6 5 9 11 8 7 7 8 8 8 8 11 11 13 14 12 11 10 9 7 8 7 10 7 3 4 3 3 2 6 4 2 9 5 14 18 21 22 22
9 8 9 5 6 6 9 11 11 5 7 8 8 7 7 6 10 9 11 14 14 14 16 12 10 10 8 9 5 5 5 4 4 3 3 3 3 3 8 14 17 19 20
10 8 7 8 7 6 11 13 13 7 6 6 8 9 9 8 9 10 9 10 10 10 11 9 9 9 10 8 11 6 6 3 3 2 5 3 3 3 1 1 4 9 14
9 8 7 7 8 7 10 11 8 6 7 9 9 9 9 9 11 14 10 9 8 8 12 19 22 19 19 18 16 6 4 4 3 4 5 3 2 2 1 1 1 2 3
10 7 7 4 8 9 8 12 11 6 7 8 10 11 13 13 11 13 10 9 9 10 6 5 4 8 15 16 25 16 6 3 2 1 4 5 3 3 1 1 2 3 0
Wind_Direction
142 142 133 130 125 132 134 118 120 112 125 125 114 114 106 97 91 90 95 93 87 85 86 101 79 72 72 65 35 39 40 44 51 49 59 71 76 70 68 66 60 60 60
150 146 140 139 136 148 147 134 132 124 118 134 128 122 115 106 93 76 75 100 84 83 84 82 81 71 66 72 57 47 37 42 42 40 42 65 72 75 68 61 59 59 60
158 152 147 149 155 149 142 123 119 108 112 118 120 135 125 122 104 83 81 88 82 98 60 84 87 84 66 69 61 54 48 39 43 42 38 48 67 77 72 63 57 55 56
168 155 152 160 161 153 147 127 115 77 101 123 136 143 138 145 113 102 87 92 69 93 75 93 79 69 76 81 83 62 65 46 40 39 47 42 48 65 64 54 52 57 56
169 160 161 163 164 156 157 139 95 103 125 120 116 123 145 143 136 121 113 90 87 75 64 72 66 52 71 82 62 54 65 55 43 39 39 38 35 46 49 48 44 61 57
164 161 157 157 160 158 153 141 120 77 123 131 97 58 18 9 163 163 151 158 113 125 86 69 41 48 34 26 18 13 17 56 40 41 36 40 41 44 48 48 49 70 68
167 164 162 155 169 170 166 162 127 124 87 135 108 51 10 10 1 350 177 168 157 161 180 186 173 48 26 20 66 40 32 70 40 29 35 39 32 44 59 64 77 74 66
170 168 168 176 175 160 159 170 152 133 115 163 128 89 81 328 345 349 310 227 194 173 181 195 204 210 235 285 252 341 339 345 353 38 41 28 35 37 70 79 94 81 62
172 175 177 175 181 174 174 172 173 157 140 184 195 141 108 220 5 335 291 270 235 243 210 197 204 218 222 229 238 250 278 293 293 294 108 22 8 26 52 32 57 87 59
178 180 180 179 180 187 168 188 183 179 143 160 206 136 67 140 166 311 301 267 240 238 235 226 221 217 221 224 230 237 248 261 281 300 208 134 288 252 89 89 41 75 67
183 187 182 178 174 182 194 184 171 171 170 157 162 147 134 80 83 138 231 305 303 246 236 230 235 235 230 225 225 229 233 243 259 277 287 231 227 285 166 123 57 53 45
178 191 187 183 186 185 182 187 185 183 185 162 181 178 168 166 185 154 165 221 227 295 253 235 230 233 236 231 231 230 230 232 236 254 268 282 229 242 210 174 155 187 346
183 195 185 184 189 194 199 188 189 185 173 187 183 201 175 175 150 147 142 177 221 267 305 247 235 230 235 234 236 235 232 232 231 234 250 265 272 234 198 187 186 169 244
193 182 188 186 190 186 182 182 178 190 185 193 189 178 193 192 165 166 168 151 191 243 288 249 258 230 230 231 234 235 236 239 235 226 233 250 278 303 231 211 227 191 209
208 186 186 184 189 190 182 178 179 191 182 192 199 188 182 196 183 186 167 161 186 198 247 248 244 235 232 233 237 235 235 238 237 235 232 238 248 251 255 229 224 213 199
218 197 193 191 187 194 184 183 187 176 177 194 195 186 202 179 181 185 178 188 186 221 245 201 238 238 233 230 236 231 237 241 238 237 235 233 243 246 245 241 225 221 229
215 207 200 192 192 209 191 189 193 184 188 190 194 194 203 193 177 179 181 182 211 173 234 264 234 252 232 223 231 235 235 237 239 239 241 240 241 244 239 235 233 231 229
240 215 211 198 210 218 211 197 196 190 196 194 200 176 207 193 204 181 183 205 215 203 202 248 227 233 227 227 223 216 228 233 237 240 243 244 245 246 245 240 238 237 224
278 230 207 204 210 216 208 201 193 193 202 205 194 199 202 197 203 189 201 208 215 212 210 227 244 211 215 178 209 231 220 225 233 241 245 246 246 246 246 244 239 238 235
314 255 210 210 222 217 207 201 181 186 198 204 200 202 208 201 210 205 204 213 213 209 192 216 240 219 199 192 181 212 242 212 236 235 241 242 241 243 243 245 242 240 240
326 291 234 201 198 204 205 194 174 189 193 198 201 203 210 208 206 206 199 211 206 211 213 216 224 189 199 187 201 178 216 162 224 212 226 236 238 242 241 243 243 241 240
342 339 261 219 204 201 199 209 188 188 197 203 207 211 209 205 212 212 213 216 208 213 217 215 225 220 228 219 181 190 160 154 247 194 189 247 211 230 238 241 243 243 241
334 340 329 249 226 218 202 212 210 201 206 207 213 208 212 211 207 219 223 230 233 232 235 238 222 212 224 214 194 187 184 172 192 176 147 238 195 236 244 249 247 246 243
327 328 327 329 252 227 207 213 208 212 223 219 218 215 218 216 208 211 227 235 227 232 235 235 230 215 216 209 200 201 186 137 86 173 196 216 167 220 146 242 247 240 241
315 322 316 321 311 254 220 215 192 198 214 229 233 224 218 222 215 207 216 228 235 231 231 240 232 229 217 190 176 136 165 147 197 212 194 155 205 196 74 39 323 358 254
302 302 306 301 296 294 249 229 209 208 223 229 227 233 220 224 214 205 215 223 229 232 210 207 223 224 220 204 184 188 158 163 139 31 210 174 150 156 12 17 0 3 138